When you browse on this site, cookies collect data to enhance your experience and personalize the content and advertising you see.
Visit our Privacy Policy to learn more. By continuing to use the site, you agree to this use of cookies and data.
  • In Czech Republic
  • List of Countries
  • For 7 days
  • Water Temperature
  • Weather Map
  • Weather Widgets
  • user-avatar
    Login

    Hourly Weather El Copey

    Today, 11 November, Monday

    Time Temperature Precipitation Wind Pressure Humidity
    00:00 +25°C° 0 mm 1 mps 743 mmHg 94%
    01:00 +25°C° 0 mm 1 mps 743 mmHg 94%
    02:00 +25°C° 0 mm 1 mps 742 mmHg 94%
    03:00 +25°C° 0 mm 1 mps 742 mmHg 94%
    04:00 +24°C° 0 mm 1 mps 742 mmHg 94%
    05:00 +25°C° 0 mm 1 mps 742 mmHg 93%
    06:00 +25°C° 0 mm 1 mps 743 mmHg 91%
    07:00 +26°C° 0 mm 2 mps 743 mmHg 90%
    08:00 +28°C° 0 mm 2 mps 743 mmHg 82%
    09:00 +30°C° 0 mm 2 mps 743 mmHg 74%
    10:00 +32°C° 0 mm 2 mps 744 mmHg 66%
    11:00 +32°C° 0.1 mm 2 mps 743 mmHg 63%
    12:00 +33°C° 0.1 mm 1 mps 742 mmHg 61%
    13:00 +34°C° 0.1 mm 1 mps 741 mmHg 58%
    14:00 +33°C° 0.5 mm 1 mps 741 mmHg 64%
    15:00 +32°C° 0.5 mm 2 mps 741 mmHg 70%
    16:00 +31°C° 0.5 mm 2 mps 740 mmHg 77%
    17:00 +30°C° 0.2 mm 2 mps 741 mmHg 82%
    18:00 +28°C° 0.2 mm 1 mps 741 mmHg 87%
    19:00 +27°C° 0.2 mm 1 mps 742 mmHg 92%
    20:00 +26°C° 0 mm 1 mps 742 mmHg 92%
    21:00 +26°C° 0 mm 1 mps 742 mmHg 92%
    22:00 +26°C° 0 mm 1 mps 743 mmHg 93%
    23:00 +26°C° 0 mm 1 mps 742 mmHg 93%

    Tomorrow, 12 November, Tuesday

    Time Temperature Precipitation Wind Pressure Humidity
    00:00 +25°C° 0 mm 1 mps 742 mmHg 93%
    01:00 +25°C° 0 mm 1 mps 742 mmHg 93%
    02:00 +25°C° 0 mm 1 mps 741 mmHg 93%
    03:00 +25°C° 0 mm 1 mps 741 mmHg 93%
    04:00 +24°C° 0 mm 1 mps 741 mmHg 93%
    05:00 +25°C° 0 mm 1 mps 741 mmHg 91%
    06:00 +25°C° 0 mm 1 mps 742 mmHg 89%
    07:00 +25°C° 0 mm 1 mps 742 mmHg 86%
    08:00 +28°C° 0 mm 1 mps 742 mmHg 78%
    09:00 +30°C° 0 mm 1 mps 743 mmHg 70%
    10:00 +32°C° 0 mm 1 mps 743 mmHg 63%
    11:00 +33°C° 0 mm 1 mps 742 mmHg 60%
    12:00 +33°C° 0 mm 1 mps 742 mmHg 57%
    13:00 +34°C° 0 mm 1 mps 741 mmHg 55%
    14:00 +34°C° 0.3 mm 2 mps 740 mmHg 60%
    15:00 +34°C° 0.3 mm 2 mps 740 mmHg 65%
    16:00 +32°C° 0.3 mm 2 mps 740 mmHg 70%
    17:00 +30°C° 0.4 mm 2 mps 740 mmHg 76%
    18:00 +29°C° 0.4 mm 1 mps 740 mmHg 82%
    19:00 +27°C° 0.4 mm 1 mps 741 mmHg 88%
    20:00 +27°C° 0.2 mm 1 mps 741 mmHg 89%
    21:00 +26°C° 0.2 mm 1 mps 742 mmHg 91%
    22:00 +24°C° 0.2 mm 0 mps 742 mmHg 92%
    23:00 +26°C° 0.2 mm 1 mps 742 mmHg 93%

    Day after tomorrow, 13 November, Wednesday

    Time Temperature Precipitation Wind Pressure Humidity
    00:00 +25°C° 0.2 mm 1 mps 742 mmHg 95%
    01:00 +25°C° 0.2 mm 1 mps 742 mmHg 97%
    02:00 +25°C° 0.3 mm 1 mps 742 mmHg 97%
    03:00 +25°C° 0.3 mm 1 mps 742 mmHg 97%
    04:00 +25°C° 0.3 mm 1 mps 742 mmHg 98%
    05:00 +25°C° 0.3 mm 1 mps 742 mmHg 97%
    06:00 +26°C° 0.3 mm 1 mps 743 mmHg 96%
    07:00 +26°C° 0.3 mm 1 mps 743 mmHg 95%
    08:00 +27°C° 0.2 mm 2 mps 744 mmHg 91%
    09:00 +28°C° 0.2 mm 2 mps 744 mmHg 87%
    10:00 +28°C° 0.2 mm 2 mps 744 mmHg 83%
    11:00 +29°C° 0.4 mm 2 mps 743 mmHg 81%
    12:00 +30°C° 0.4 mm 2 mps 743 mmHg 79%
    13:00 +30°C° 0.4 mm 2 mps 742 mmHg 77%
    14:00 +30°C° 1.1 mm 2 mps 742 mmHg 80%
    15:00 +29°C° 1.1 mm 1 mps 742 mmHg 82%
    16:00 +29°C° 1.1 mm 1 mps 741 mmHg 84%
    17:00 +28°C° 1.4 mm 1 mps 742 mmHg 87%
    18:00 +27°C° 1.4 mm 1 mps 742 mmHg 90%
    19:00 +26°C° 1.4 mm 1 mps 743 mmHg 94%
    20:00 +26°C° 1.8 mm 1 mps 743 mmHg 94%
    21:00 +25°C° 1.8 mm 1 mps 744 mmHg 95%
    22:00 +25°C° 1.8 mm 1 mps 744 mmHg 95%
    23:00 +25°C° 1.2 mm 1 mps 744 mmHg 96%

    14 November, Thursday

    Time Temperature Precipitation Wind Pressure Humidity
    00:00 +25°C° 1.2 mm 1 mps 744 mmHg 97%
    01:00 +24°C° 1.2 mm 1 mps 744 mmHg 98%
    02:00 +24°C° 0.6 mm 1 mps 744 mmHg 98%
    03:00 +24°C° 0.6 mm 1 mps 744 mmHg 98%
    04:00 +24°C° 0.6 mm 1 mps 743 mmHg 98%
    05:00 +24°C° 0.1 mm 1 mps 744 mmHg 97%
    06:00 +24°C° 0.1 mm 1 mps 744 mmHg 97%
    07:00 +25°C° 0.1 mm 1 mps 745 mmHg 97%
    08:00 +26°C° 0.3 mm 1 mps 745 mmHg 93%
    09:00 +27°C° 0.3 mm 2 mps 746 mmHg 90%
    10:00 +27°C° 0.3 mm 2 mps 746 mmHg 87%
    11:00 +28°C° 1 mm 2 mps 745 mmHg 85%
    12:00 +28°C° 1 mm 2 mps 745 mmHg 84%
    13:00 +29°C° 1 mm 2 mps 744 mmHg 83%
    14:00 +29°C° 1.2 mm 1 mps 744 mmHg 84%
    15:00 +29°C° 1.2 mm 1 mps 743 mmHg 85%
    16:00 +28°C° 1.2 mm 1 mps 743 mmHg 86%
    17:00 +27°C° 1.1 mm 1 mps 743 mmHg 89%
    18:00 +26°C° 1.1 mm 1 mps 744 mmHg 91%
    19:00 +23°C° 1.1 mm 0 mps 744 mmHg 94%
    20:00 +23°C° 0.6 mm 0 mps 744 mmHg 94%
    21:00 +23°C° 0.6 mm 0 mps 745 mmHg 94%
    22:00 +23°C° 0.6 mm 0 mps 745 mmHg 94%
    23:00 +22°C° 0.4 mm 0 mps 745 mmHg 94%

    15 November, Friday

    Time Temperature Precipitation Wind Pressure Humidity
    00:00 +22°C° 0.4 mm 0 mps 745 mmHg 95%
    01:00 +22°C° 0.4 mm 0 mps 744 mmHg 95%
    02:00 +22°C° 0.5 mm 0 mps 744 mmHg 95%
    03:00 +22°C° 0.5 mm 0 mps 744 mmHg 96%
    04:00 +22°C° 0.5 mm 0 mps 744 mmHg 96%
    05:00 +22°C° 0.1 mm 0 mps 744 mmHg 95%
    06:00 +24°C° 0.1 mm 1 mps 745 mmHg 95%
    07:00 +25°C° 0.1 mm 1 mps 745 mmHg 94%
    08:00 +26°C° 0.7 mm 1 mps 745 mmHg 90%
    09:00 +28°C° 0.7 mm 1 mps 745 mmHg 86%
    10:00 +29°C° 0.7 mm 1 mps 745 mmHg 82%
    11:00 +29°C° 1.7 mm 1 mps 745 mmHg 81%
    12:00 +30°C° 1.7 mm 1 mps 744 mmHg 80%
    13:00 +30°C° 1.7 mm 1 mps 743 mmHg 79%
    14:00 +30°C° 2.3 mm 1 mps 743 mmHg 82%
    15:00 +29°C° 2.3 mm 1 mps 742 mmHg 85%
    16:00 +29°C° 2.3 mm 1 mps 742 mmHg 88%
    17:00 +28°C° 1 mm 1 mps 742 mmHg 90%
    18:00 +27°C° 1 mm 1 mps 742 mmHg 92%
    19:00 +25°C° 1 mm 2 mps 743 mmHg 94%
    20:00 +25°C° 0.2 mm 2 mps 743 mmHg 94%
    21:00 +25°C° 0.2 mm 1 mps 744 mmHg 95%
    22:00 +25°C° 0.2 mm 1 mps 744 mmHg 95%
    23:00 +24°C° 0.6 mm 1 mps 744 mmHg 95%

    16 November, Saturday

    Time Temperature Precipitation Wind Pressure Humidity
    00:00 +24°C° 0.6 mm 1 mps 743 mmHg 95%
    01:00 +24°C° 0.6 mm 1 mps 743 mmHg 96%
    02:00 +24°C° 0.6 mm 1 mps 743 mmHg 96%
    03:00 +24°C° 0.6 mm 1 mps 743 mmHg 96%
    04:00 +22°C° 0.6 mm 0 mps 743 mmHg 96%
    05:00 +22°C° 0.1 mm 0 mps 743 mmHg 95%
    06:00 +24°C° 0.1 mm 1 mps 744 mmHg 95%
    07:00 +25°C° 0.1 mm 1 mps 744 mmHg 94%
    08:00 +26°C° 0.8 mm 1 mps 744 mmHg 91%
    09:00 +27°C° 0.8 mm 1 mps 744 mmHg 87%
    10:00 +29°C° 0.8 mm 2 mps 744 mmHg 84%
    11:00 +29°C° 1.4 mm 1 mps 743 mmHg 82%
    12:00 +30°C° 1.4 mm 1 mps 743 mmHg 80%
    13:00 +30°C° 1.4 mm 1 mps 742 mmHg 78%
    14:00 +30°C° 1.3 mm 1 mps 741 mmHg 80%
    15:00 +29°C° 1.3 mm 1 mps 741 mmHg 81%
    16:00 +29°C° 1.3 mm 1 mps 740 mmHg 83%
    17:00 +28°C° 0.3 mm 1 mps 741 mmHg 86%
    18:00 +26°C° 0.3 mm 1 mps 741 mmHg 90%
    19:00 +25°C° 0.3 mm 1 mps 742 mmHg 93%
    20:00 +25°C° 0 mm 1 mps 742 mmHg 93%
    21:00 +24°C° 0 mm 1 mps 743 mmHg 94%
    22:00 +24°C° 0 mm 1 mps 743 mmHg 94%
    23:00 +24°C° 0 mm 1 mps 743 mmHg 94%
    Show more